Flag for Colombia Weather past 2 weeks in Medellin, Colombia

Now
57 °F

Light rain. Broken clouds.


Feels Like: 57 °F
Forecast: 58 / 86 °F
Wind: No wind

Location: Rionegro / J. M. Cordova

Current Time: Aug 29, 2014 at 7:38:16 AM

Latest Report: Aug 29, 2014 at 7:00 AM


Visibility: 4 mi

Pressure: 30.31 "Hg

Humidity: 94%

Dew point: 55 °F

Location of MedellinLocation

Historic Weather in Medellin — Graph

°F

Medellin temperature yesterday

Maximum temperature yesterday: 72 °F (at 3:00 PM)
Minimum temperature yesterday: 57 °F (at 12:00 AM)
Average temperature yesterday: 62 °F

Past Weeks' High & Low Weather Summary

 TemperatureHumidityPressure
High75 °F (Aug 15, 2:00 PM)100% (Aug 14, 6:00 AM)30.36 "Hg (Aug 14, 6:00 AM)
Low50 °F (Aug 15, 5:00 AM)38% (Aug 15, 3:00 PM)30.14 "Hg (Aug 25, 4:00 PM)
Average62 °F76%30.28 "Hg
* Reported Aug 14 6:00 AM — Aug 29 6:00 AM, Medellin, Weather by CustomWeather, © 2014

Note: Actual official high and low records may vary slightly from our data, if they occured in-between our weather recording intervals... More about our weather records

Advertising

Medellin weather history for previous 24 hours

 ConditionsComfort  
Time TempWeatherWind HumidityBarometerVisibility
6:00 AM
Aug 29
57 °FDrizzle. Mostly cloudy.No wind100%30.31 "Hg2 mi
5:00 AM57 °FFog.No wind94%30.28 "Hg4 mi
4:00 AM57 °FPartly cloudy.No wind100%30.29 "Hg2 mi
3:00 AM57 °FMostly cloudy.No wind100%30.29 "HgN/A
2:00 AM57 °FDrizzle. Mostly cloudy.No wind100%30.29 "Hg5 mi
1:00 AM57 °FLight rain. Mostly cloudy.No wind100%30.32 "Hg3 mi
12:00 AM59 °FPartly cloudy.No wind94%30.33 "Hg6 mi
11:00 PM
Aug 28
59 °FMostly cloudy.No wind94%30.33 "Hg5 mi
10:00 PM61 °FDrizzle. Mostly cloudy.No wind88%30.32 "Hg6 mi
9:00 PM61 °FPartly cloudy.5 mph88%30.32 "Hg5 mi
8:00 PM61 °FPassing clouds.5 mph88%30.28 "HgN/A
7:00 PM61 °FPassing clouds.No wind88%30.25 "HgN/A
6:00 PM63 °FBroken clouds.5 mph83%30.23 "HgN/A
5:00 PM64 °FBroken clouds.9 mph73%30.21 "HgN/A
4:00 PM68 °FScattered showers. Broken clouds.N/A60%30.21 "HgN/A
3:00 PM72 °FBroken clouds.9 mph53%30.21 "HgN/A
2:00 PM70 °FBroken clouds.9 mph53%30.24 "HgN/A
1:00 PM68 °FBroken clouds.9 mph60%30.28 "HgN/A
12:00 PM68 °FBroken clouds.No wind64%30.30 "HgN/A
11:00 AM64 °FDrizzle. Cloudy.7 mph73%30.32 "HgN/A
10:00 AM63 °FPartly sunny.5 mph77%30.33 "HgN/A
9:00 AM61 °FBroken clouds.No wind83%30.34 "HgN/A
8:00 AM57 °FPartly sunny.No wind94%30.32 "Hg4 mi
7:00 AM57 °FDrizzle. Partly sunny.No wind94%30.30 "HgN/A
Weather by CustomWeather, © 2014

See weather overviewHow to use our weather pages